Вернуться в каталог

STARLINK-5516

АктивенСвязьVLEO
NORAD 57253·PAYLOAD·🇺🇸 United States

Запущен Jul 7, 2023 с Vandenberg Space Force Base

Loading…

Ближайшие Пролёты (ближайшие 24 часа)

TLE

СвежийSource: CelesTrak SupGP

Эпоха: Sep 15, 2026, 01:59 UTC

1 57253C 23094AM  26258.08312500 -.00031957  00000+0 -11574-2 0  2586
2 57253  43.0024  30.1786 0001464 270.1816 196.8956 15.27596414    11

Отслеживайте STARLINK-5516 в реальном времени с AllMySat

Download on the App Store